RH
98 97 98 99 99 100 100 100 100 100 100 100 99 100 100 101 102 100 99 99 99 100 99 99 100 100 100 100 100 100 100 100 100 100 100 100 100 100 100 100 101 100 100 99 97 93 89 85 79 74 70 65 62 60 58 55 53 50 47 45 43 42 41
93 94 96 95 93 95 98 99 101 100 100 100 100 101 100 100 100 96 97 101 101 101 100 100 100 100 101 101 100 100 100 100 101 100 100 100 100 100 100 100 99 97 95 94 92 88 84 80 76 72 70 67 65 64 62 58 55 51 47 45 43 42 42
90 92 95 96 94 95 97 99 99 98 99 100 100 98 95 96 99 99 100 102 102 102 102 100 99 99 98 99 100 101 101 101 100 100 100 100 100 100 99 98 96 92 89 86 84 81 78 74 71 69 69 68 66 63 60 57 54 52 51 49 48 47 47
97 97 98 100 100 100 100 100 100 99 100 98 96 95 95 98 101 101 101 101 101 101 101 98 95 96 97 97 98 99 100 101 100 100 100 99 98 97 95 93 90 86 83 79 76 74 72 69 67 67 68 66 63 59 56 54 53 53 54 53 52 52 51
100 100 101 102 101 100 100 101 101 101 99 97 97 99 100 101 101 101 101 102 101 100 99 98 97 99 100 100 99 99 99 99 98 97 96 95 95 93 90 88 85 82 80 76 72 70 68 66 65 65 65 62 58 55 54 55 54 53 53 52 52 51 50
100 100 100 100 100 100 100 100 100 100 100 100 100 101 101 101 101 101 101 101 101 100 100 100 100 101 101 100 100 100 99 98 97 95 95 94 92 90 87 85 83 81 78 74 70 67 66 65 64 63 61 59 57 55 54 55 54 54 53 51 50 48 45
95 97 100 100 100 100 100 101 100 100 100 100 100 101 101 101 101 100 100 100 100 100 100 101 101 101 101 100 100 99 99 100 100 97 95 92 90 87 85 84 82 79 75 71 68 66 64 63 61 60 59 59 59 58 56 55 53 51 50 47 45 42 38
84 89 96 101 101 100 100 100 100 100 100 100 100 101 100 100 100 100 101 100 100 101 101 101 100 99 98 97 98 99 100 101 99 96 93 90 88 86 83 81 78 75 72 70 68 66 64 61 61 61 61 60 59 57 55 53 49 46 43 40 37 33 29
87 90 96 101 101 100 100 100 100 100 101 100 101 100 100 100 101 100 100 100 101 101 99 97 96 96 97 97 98 98 98 98 98 97 94 89 85 82 80 79 76 74 72 70 68 66 64 63 63 62 60 57 54 51 48 45 41 37 33 31 27 24 20
97 98 101 101 100 100 100 100 100 100 101 101 100 100 100 101 100 100 100 100 100 98 96 96 98 99 100 99 98 98 97 98 98 95 91 86 83 82 81 78 76 73 71 69 67 65 64 63 61 57 53 48 43 40 36 33 29 25 23 21 18 16 13
100 100 101 100 100 100 100 100 101 101 100 100 100 100 100 100 100 100 101 100 98 98 99 100 102 101 100 99 100 99 97 94 91 87 85 85 85 84 80 77 74 72 69 67 64 63 61 57 51 45 39 33 29 26 23 21 19 17 16 15 13 12 10
100 100 100 100 100 100 100 100 101 100 100 100 100 100 100 100 100 100 100 99 98 99 100 101 101 99 100 101 100 96 91 87 83 82 83 84 84 82 79 76 74 71 68 64 60 56 50 42 35 30 25 21 19 18 16 14 13 12 12 11 10 9 8
101 100 100 100 100 100 100 100 100 100 100 100 100 100 100 100 100 100 100 99 99 100 100 100 100 100 100 99 94 89 86 84 84 84 85 85 84 82 79 76 71 66 62 57 50 43 35 27 23 20 17 14 13 13 12 11 11 10 9 8 8 7 6
101 100 100 100 100 100 100 100 100 100 100 100 100 100 100 100 101 100 100 99 99 100 100 100 100 100 97 93 89 87 87 88 88 88 88 87 84 79 73 66 58 52 47 41 35 29 22 18 15 14 13 12 12 11 10 10 9 8 7 7 6 5 5
100 100 100 100 100 100 100 100 100 100 100 100 100 100 100 101 101 100 100 100 100 100 100 100 100 97 94 92 92 91 91 90 89 89 87 82 74 65 56 46 39 34 30 25 21 18 15 13 13 12 11 11 11 10 9 8 7 7 7 6 6 5 5
100 100 101 101 100 100 100 100 100 100 100 100 100 100 101 101 100 100 100 100 100 100 101 100 99 96 95 95 95 93 92 90 87 82 75 65 55 45 37 29 25 22 19 16 14 13 13 13 12 12 11 10 10 9 8 8 7 7 7 6 6 6 6
100 100 100 101 101 100 100 100 100 100 100 100 101 101 100 100 100 100 100 100 100 101 101 100 98 97 98 99 98 94 89 82 73 64 54 45 37 31 24 19 17 16 14 13 13 13 13 12 11 11 10 10 10 9 8 8 7 7 7 6 6 7 6
100 100 100 100 101 100 100 100 100 100 101 101 101 99 98 98 99 100 100 101 101 101 100 100 100 100 100 98 92 83 72 62 52 43 37 31 26 21 17 14 13 13 13 13 13 12 12 12 11 11 11 11 11 10 9 8 8 7 7 7 7 7 6
100 100 100 100 100 100 100 100 101 101 101 100 98 97 97 99 100 101 101 100 100 100 101 102 101 97 90 81 70 59 49 41 35 30 25 21 18 15 13 13 13 13 13 13 13 12 12 12 12 13 13 12 12 11 10 9 8 8 8 7 7 6 5
100 100 100 101 101 101 101 101 102 101 100 99 98 99 100 101 100 100 100 101 101 101 99 95 87 76 65 55 46 39 33 28 23 20 16 14 13 13 13 13 13 13 13 12 13 13 13 14 14 14 13 13 12 11 10 9 9 8 7 6 6 5 5
100 100 101 101 100 100 99 99 99 99 99 98 98 99 100 101 101 102 101 99 95 89 80 70 61 52 44 38 32 27 22 18 16 14 13 13 13 13 13 13 13 13 13 13 13 14 14 15 15 14 14 13 12 10 9 8 7 6 6 6 5 5 6
97 97 97 95 94 94 94 95 97 97 97 98 99 100 101 101 99 94 87 80 71 63 56 49 42 37 31 27 22 18 15 14 13 13 13 13 14 14 13 13 13 13 14 14 14 15 15 16 15 14 13 11 9 8 7 6 6 6 6 6 6 7 8
89 89 90 91 92 94 96 98 100 100 98 97 96 93 89 84 76 67 60 54 50 45 41 36 31 27 22 19 16 14 14 14 14 14 14 14 14 14 14 14 15 15 15 15 15 15 15 15 14 12 10 8 7 6 6 6 6 7 7 8 9 10 10
80 81 82 84 86 89 91 92 91 89 85 80 74 68 62 56 51 47 44 41 39 35 31 27 23 19 16 15 14 14 14 14 14 14 15 15 15 15 15 16 17 17 16 16 16 16 15 13 11 9 7 7 6 6 6 7 7 8 9 10 11 11 11
68 69 70 71 71 72 72 71 68 64 60 56 51 48 45 42 41 39 37 34 31 27 24 21 17 15 15 14 15 14 14 15 15 15 15 16 16 17 18 18 18 18 17 17 16 15 12 10 8 7 6 7 7 7 7 8 9 10 12 12 12 12 12
58 58 58 58 57 57 56 54 52 49 47 45 43 41 40 38 37 34 32 29 26 23 20 17 15 15 15 15 15 14 14 15 15 16 16 17 18 19 20 20 20 19 18 16 14 11 8 7 7 7 8 8 8 9 10 11 12 13 13 13 13 13 13
55 54 53 52 51 50 49 49 48 47 46 44 43 41 39 37 34 31 28 25 22 20 18 16 15 15 15 15 15 15 15 16 16 17 19 19 20 21 21 21 20 18 14 11 9 7 7 8 8 9 9 10 10 12 13 13 13 13 13 14 14 14 15
56 55 54 53 53 52 51 50 49 48 47 45 43 41 38 35 32 29 26 23 20 18 17 16 16 16 15 15 15 15 16 17 18 19 20 21 22 22 21 19 15 12 10 8 7 7 8 9 10 11 12 12 12 13 14 13 14 15 15 16 16 15 17
59 58 58 57 57 55 54 54 52 50 48 46 43 40 37 34 30 27 24 21 19 18 17 16 16 15 15 15 16 17 18 19 20 21 22 23 22 19 15 12 10 8 8 8 8 9 10 11 12 13 13 13 13 14 14 15 16 16 17 17 18 19 21
62 62 61 61 60 59 58 57 55 52 49 46 43 40 36 33 29 26 23 21 19 18 17 16 15 15 15 16 17 18 20 21 22 23 22 20 17 13 10 9 8 8 9 10 11 12 13 13 13 13 14 14 14 15 16 17 17 18 18 20 21 23 24
66 66 65 64 63 62 61 60 57 54 51 47 43 39 34 30 27 24 22 20 18 17 16 15 16 16 17 18 19 20 22 23 23 21 18 14 11 9 8 9 9 10 11 12 13 14 13 14 14 14 15 16 16 17 18 19 20 21 22 23 24 25 25
72 72 71 70 70 69 67 64 60 56 52 46 41 35 30 27 24 22 20 18 17 16 16 15 17 18 19 20 22 22 23 22 19 15 12 10 9 9 9 10 11 11 12 13 13 14 14 15 16 16 17 19 19 20 21 23 24 24 23 23 24 23 20
80 80 79 78 77 75 71 67 61 56 50 43 37 32 27 25 23 20 18 17 16 16 16 17 18 20 21 22 22 21 19 16 13 11 10 9 10 11 11 12 12 12 13 13 13 15 17 18 19 20 21 21 22 22 23 24 24 23 22 21 19 17 14
88 87 86 85 82 78 73 67 60 54 47 40 34 29 25 23 20 18 16 16 16 17 18 19 20 21 21 21 19 17 14 12 10 10 10 11 12 12 12 13 13 13 14 15 16 18 21 22 22 21 20 20 19 19 19 21 21 20 18 16 13 12 14
97 95 92 89 86 80 73 66 58 50 42 35 29 26 22 20 18 17 16 17 18 19 20 20 20 20 18 17 15 12 11 11 11 12 12 12 13 13 13 14 15 15 17 19 20 21 21 20 18 17 15 14 15 15 16 18 19 16 13 12 14 17 19
104 103 99 94 90 83 75 64 54 44 36 30 26 22 20 18 17 17 17 18 19 20 20 20 19 17 15 13 12 11 12 12 13 13 13 13 13 14 15 16 18 20 21 21 20 18 16 15 14 13 12 12 12 13 14 16 15 13 13 16 20 22 24
Wind_Speed
47 49 51 53 55 55 55 55 55 55 55 55 56 57 56 54 51 51 52 52 51 53 54 55 56 57 56 56 55 54 53 54 55 55 56 57 57 58 59 60 60 60 59 60 60 60 60 61 61 62 63 64 65 66 67 68 69 70 70 71 72 72 73
47 48 49 51 52 53 53 54 55 55 55 56 57 56 54 52 51 52 53 52 52 52 53 52 52 53 54 55 56 57 56 56 56 57 58 58 58 59 59 59 60 60 60 61 61 62 62 63 63 64 65 66 66 67 68 69 70 71 72 73 73 74 75
48 48 48 48 49 50 51 51 52 53 54 55 55 53 52 53 53 54 55 55 55 55 55 55 55 54 54 54 55 56 57 57 57 58 58 59 59 58 58 58 59 59 60 60 61 62 63 64 64 65 66 67 68 68 69 70 71 72 73 73 74 74 75
48 48 48 48 48 48 48 48 50 52 53 53 52 52 53 53 52 53 54 55 56 57 57 58 58 58 57 57 57 56 56 57 58 58 59 58 58 57 57 57 58 59 60 61 62 63 64 65 65 67 68 69 70 71 72 73 73 74 74 74 75 75 76
48 48 48 48 48 47 47 48 49 51 51 50 51 53 52 51 52 53 55 56 57 57 58 58 58 57 56 56 56 55 55 56 56 57 57 56 56 56 56 57 57 59 60 62 63 65 66 67 68 69 71 72 73 73 74 75 76 76 76 76 77 77 78
48 48 47 47 47 47 48 49 51 54 53 51 51 52 53 53 54 55 56 56 56 57 56 56 56 56 55 53 52 52 53 53 53 53 53 54 54 55 56 57 59 61 62 64 65 66 68 69 70 71 73 74 75 76 77 77 77 77 78 79 79 79 80
50 49 48 47 47 47 47 48 49 50 50 51 53 54 55 55 55 55 55 55 55 55 54 53 53 52 52 51 50 50 51 51 51 52 52 53 55 56 58 60 62 64 66 67 68 69 70 71 73 74 75 77 78 78 79 79 79 79 80 81 81 81 82
50 50 50 49 47 46 46 46 47 47 48 51 54 55 53 52 52 53 53 53 52 52 52 51 50 49 49 49 50 51 52 52 52 53 54 56 58 59 61 63 65 67 69 70 71 72 73 73 75 76 78 78 79 80 81 82 82 82 82 83 84 84 85
50 51 51 49 47 46 46 47 49 51 53 54 55 54 51 50 51 51 51 51 51 51 51 50 50 49 50 51 52 52 53 54 55 57 58 60 61 63 65 67 69 71 72 72 73 73 75 76 77 78 80 80 81 83 83 84 85 85 85 86 86 86 87
48 49 48 47 46 46 45 46 49 53 55 55 53 52 50 50 51 51 51 50 50 49 48 49 50 51 52 53 53 55 56 58 59 60 62 64 65 67 69 71 73 74 74 74 75 76 77 78 79 81 82 82 83 84 85 85 86 86 86 87 87 87 89
45 45 46 45 45 45 47 50 54 55 55 53 52 50 50 50 51 50 50 49 48 46 46 48 50 52 54 56 58 60 61 61 62 64 66 68 69 72 73 75 75 76 76 77 77 78 79 80 81 82 82 83 84 85 85 86 87 88 88 89 90 90 91
44 44 45 44 45 48 52 56 57 56 54 52 51 50 50 50 50 49 49 48 46 45 47 50 54 56 58 60 62 63 63 64 65 67 69 71 73 75 77 77 77 78 78 78 79 79 80 81 82 82 83 84 85 86 87 87 88 90 91 92 93 94 94
43 43 44 44 46 50 54 55 54 53 52 51 50 50 50 50 49 48 47 46 46 47 51 54 57 60 61 63 64 65 66 67 69 71 73 75 77 78 78 78 79 79 80 80 81 81 81 82 83 83 84 86 87 88 89 90 91 92 93 94 95 96 97
40 42 43 45 47 49 51 51 51 51 51 50 50 50 49 49 48 47 46 47 48 52 56 58 60 62 64 65 66 67 69 71 73 74 76 77 78 78 78 79 79 80 81 82 82 82 82 83 84 85 86 88 89 91 92 93 93 95 96 97 98 99 100
40 41 43 45 47 49 50 50 50 50 50 50 50 49 48 47 46 46 47 50 53 56 59 61 63 65 67 68 70 71 73 74 75 76 77 77 77 78 78 79 80 80 81 82 82 83 84 85 86 88 89 91 93 94 95 96 97 98 100 101 101 102 104
41 41 43 45 46 48 49 49 49 49 50 49 48 47 46 46 46 48 50 53 57 59 62 64 66 68 70 71 73 75 76 76 77 77 77 77 77 78 78 79 80 81 81 82 82 84 85 86 88 90 92 94 96 97 99 99 100 101 103 104 104 105 105
41 43 44 46 47 48 49 49 49 49 48 47 46 46 45 46 48 51 54 57 60 62 65 67 69 71 73 74 76 76 76 77 77 77 78 78 78 78 79 80 81 81 82 83 84 85 87 89 91 93 95 97 99 100 102 103 103 104 106 106 107 106 106
41 44 45 47 48 48 49 48 48 47 46 45 45 46 47 49 52 55 58 60 63 65 68 70 72 73 75 76 76 77 77 78 78 78 78 79 79 80 80 81 82 82 83 85 86 88 90 92 94 96 97 99 101 103 105 106 106 107 108 108 108 107 106
41 44 45 47 47 47 46 46 45 45 45 46 47 48 50 52 55 58 61 64 67 69 71 72 74 74 75 76 77 78 78 78 79 79 80 80 81 81 81 82 83 84 85 87 89 91 92 94 96 98 99 101 103 104 106 107 108 108 108 107 106 105 102
40 42 43 43 43 43 43 43 44 45 46 47 49 51 53 56 59 62 65 67 69 71 72 73 73 74 75 76 77 78 78 79 80 80 81 82 82 83 83 84 86 87 88 90 91 93 95 96 98 100 101 103 104 105 106 106 106 106 105 103 101 98 96
37 39 39 40 41 41 43 44 45 47 49 51 53 55 58 61 63 66 68 69 70 71 71 72 73 74 75 76 77 78 79 80 80 81 82 83 84 85 86 87 88 90 91 92 94 95 97 98 100 101 103 104 104 104 104 103 101 100 99 98 95 91 88
37 38 40 41 43 44 45 47 49 51 53 55 57 60 62 64 66 67 68 69 70 71 72 73 74 76 77 77 78 79 80 81 82 82 84 85 86 87 88 89 90 91 93 94 96 97 99 100 102 102 103 103 103 102 101 99 96 94 92 90 87 83 80
40 41 43 44 46 47 49 50 52 54 56 58 60 62 63 65 66 67 68 69 70 72 73 75 76 77 78 79 80 81 81 82 83 84 85 87 88 89 90 91 92 94 95 96 98 99 100 102 102 102 102 101 100 98 96 94 91 88 84 81 78 75 70
43 44 45 46 48 49 51 53 54 56 58 59 61 62 63 65 66 68 69 70 72 73 75 76 77 78 79 80 81 82 82 83 84 85 87 88 90 91 92 93 95 96 98 99 100 101 101 101 101 100 98 96 95 93 90 88 85 81 78 74 70 65 60
45 45 47 48 49 51 53 54 56 58 59 60 62 63 64 66 68 69 71 72 74 75 76 77 78 79 80 81 82 83 84 84 86 87 88 90 91 93 94 95 97 98 100 100 101 101 100 99 97 95 92 90 89 87 84 81 79 75 71 66 60 54 50
46 47 48 50 51 53 54 56 58 59 61 62 64 65 67 68 70 72 73 74 75 76 77 78 79 80 81 82 83 84 85 86 87 89 90 91 93 94 96 97 99 100 101 101 100 99 97 94 91 88 86 84 82 80 78 75 72 67 61 56 50 46 46
48 49 51 52 54 55 57 58 60 62 63 65 67 68 70 71 73 74 75 77 78 79 79 80 81 82 83 84 85 86 86 87 89 90 91 93 95 96 98 99 100 101 100 98 96 93 90 86 83 82 80 78 76 74 71 67 61 55 50 47 45 44 45
51 52 54 55 56 58 59 61 63 64 66 68 69 71 72 74 75 76 78 79 80 80 81 82 83 84 85 85 86 86 87 89 90 91 93 94 96 98 99 100 100 99 97 94 91 87 83 80 78 77 75 72 69 65 60 55 49 45 43 44 44 44 46
54 55 56 58 59 61 62 64 66 67 69 71 72 74 75 76 77 79 79 80 81 82 82 82 83 84 85 86 86 87 88 89 91 92 93 95 97 98 98 97 95 93 90 87 84 81 78 75 74 71 68 64 59 53 49 45 42 41 42 44 45 46 47
57 58 59 61 63 64 66 68 69 71 72 74 75 76 77 78 80 81 81 82 82 82 82 83 84 85 85 86 87 88 89 90 91 93 94 95 95 95 93 90 87 85 82 79 76 74 72 69 65 61 56 52 48 44 42 41 42 42 44 45 46 47 47
59 61 62 64 65 67 69 70 72 73 75 76 77 78 79 80 81 81 82 82 82 82 82 83 84 84 85 86 87 88 89 91 92 93 94 93 92 90 87 84 81 78 75 72 70 66 62 57 53 48 45 43 41 40 41 42 43 44 45 46 46 45 45
62 63 65 66 68 69 71 73 74 75 76 77 78 79 80 81 81 82 82 82 82 82 82 83 84 84 85 87 88 89 90 91 92 92 91 89 86 83 80 78 75 72 69 64 59 54 50 46 43 42 41 41 42 42 43 44 45 45 45 44 43 42 41
64 66 67 68 70 71 73 74 76 77 78 79 79 80 81 81 82 82 82 83 83 82 83 83 84 85 86 87 88 89 90 90 89 87 85 82 79 77 74 72 69 64 58 52 47 43 42 41 41 42 43 44 45 45 45 45 44 43 42 40 38 35 32
66 68 69 70 72 74 75 76 78 78 79 80 80 81 82 81 81 81 82 83 83 82 83 83 84 85 85 86 87 87 87 85 83 81 78 76 73 71 67 63 57 51 46 42 40 40 41 43 44 44 45 45 44 43 43 42 40 39 36 33 28 25 22
68 70 71 72 74 76 77 78 79 80 80 81 81 82 82 81 81 81 82 82 82 82 83 83 84 84 85 85 85 84 82 79 77 74 73 70 66 61 55 49 45 41 40 40 41 42 43 43 43 42 41 40 40 39 38 37 36 33 29 24 21 19 19
70 71 73 74 76 77 79 80 80 81 81 81 82 82 82 82 81 82 82 82 82 83 83 83 83 84 83 82 81 79 76 74 71 69 66 61 55 48 44 41 40 40 41 42 41 41 40 39 38 38 37 36 36 35 34 33 31 26 22 19 19 19 19
Wind_Direction
262 262 262 263 265 267 269 270 270 269 268 267 267 266 266 269 272 275 276 274 272 271 270 268 266 265 264 263 263 264 265 265 265 266 266 267 268 269 269 271 271 272 273 275 277 277 279 280 281 281 282 282 282 283 283 283 282 282 283 283 284 285 285
263 263 263 263 263 264 265 267 269 269 268 269 269 270 271 274 276 275 274 272 272 273 272 270 268 266 265 264 263 264 266 267 268 268 269 270 271 272 272 273 273 273 273 275 277 278 279 280 281 282 283 283 284 284 284 285 285 285 285 285 285 286 286
263 264 264 265 265 265 265 267 268 270 271 272 272 273 274 275 274 272 270 270 271 272 272 272 272 271 269 268 267 267 268 270 271 272 273 273 274 275 275 275 275 275 275 275 277 278 279 280 282 283 284 285 285 286 286 287 287 287 287 287 287 287 287
263 263 264 265 266 267 268 269 269 270 270 271 271 272 272 272 271 271 271 271 271 271 272 273 273 273 273 272 272 272 272 273 274 275 275 276 276 277 277 277 277 277 277 277 278 279 281 282 283 285 286 286 287 288 288 288 288 288 288 288 288 287 287
263 263 264 265 266 267 268 269 269 269 269 269 270 271 271 270 271 272 272 272 273 273 273 272 273 274 274 274 274 274 274 275 275 276 276 277 277 277 277 278 279 279 280 280 281 282 283 284 285 286 287 288 288 288 288 288 288 288 288 288 288 288 288
265 264 264 264 265 266 267 267 268 268 268 268 268 268 269 270 271 271 270 270 272 273 273 273 273 274 275 275 275 276 276 276 277 277 277 277 278 279 280 281 282 283 284 284 284 284 285 286 287 287 288 288 288 288 288 288 288 288 288 288 288 288 288
268 267 266 265 264 265 265 264 264 264 265 265 266 267 269 270 270 269 268 269 271 272 272 273 274 274 275 276 277 278 279 279 278 278 279 280 281 283 284 285 286 287 287 287 288 288 288 288 288 289 289 289 289 289 288 288 288 288 288 288 289 289 289
268 268 267 267 266 265 264 263 264 264 263 265 268 270 271 269 268 267 268 269 270 271 272 273 274 276 278 279 280 281 281 281 282 282 283 284 285 286 287 288 289 290 290 290 290 290 289 289 289 289 289 290 289 289 289 289 289 289 289 289 289 289 289
266 267 268 268 268 267 264 262 264 265 265 267 270 270 268 267 267 267 269 271 272 273 275 277 279 281 282 283 283 283 284 285 286 287 287 288 288 289 289 290 291 291 291 291 291 291 291 291 291 291 291 291 291 291 291 291 291 290 290 290 290 290 290
266 267 268 267 266 266 265 262 264 266 268 270 269 267 266 267 268 270 272 274 275 277 279 281 282 284 284 285 286 286 287 288 288 289 289 290 290 290 290 291 292 292 291 291 292 292 292 292 292 292 292 292 292 291 291 291 291 291 291 291 291 291 291
266 266 267 266 264 264 264 265 266 268 270 269 267 265 267 269 271 273 275 275 276 278 281 282 283 284 286 287 287 288 288 288 289 289 290 290 291 291 291 292 292 292 292 292 292 293 293 293 293 292 292 292 292 292 292 292 292 292 292 292 292 292 291
266 266 265 264 262 263 264 266 268 269 268 266 265 266 268 270 272 274 274 275 276 278 280 283 284 286 286 286 286 287 288 289 290 290 291 291 291 291 292 292 292 292 292 293 293 293 293 293 293 293 293 293 293 293 293 293 293 293 293 293 292 292 292
266 264 263 261 260 262 265 267 267 266 265 264 265 267 269 271 272 273 274 275 278 281 283 284 285 285 285 286 286 287 289 290 290 291 291 291 292 292 292 292 293 293 293 294 294 293 293 293 293 294 294 294 294 294 294 294 294 294 293 293 293 293 293
267 264 262 261 261 263 265 266 266 264 263 265 266 268 270 271 272 273 275 278 281 283 284 284 284 285 285 286 287 288 289 290 291 291 291 292 292 292 293 293 293 294 294 294 294 294 294 294 294 295 295 295 295 295 295 294 294 294 294 294 294 294 295
268 264 262 261 261 263 264 265 264 264 264 265 267 269 270 271 273 275 278 281 283 283 283 283 284 284 285 287 288 289 290 290 291 291 291 291 292 293 293 294 294 294 295 295 295 295 295 296 296 296 296 296 296 296 295 295 295 295 295 295 295 296 297
269 266 263 261 261 262 263 264 264 264 265 266 268 269 271 272 275 279 281 282 282 282 283 283 284 285 287 288 289 290 290 291 291 291 292 292 293 294 294 294 294 295 295 296 296 296 297 297 297 297 296 296 296 296 296 296 296 297 297 297 297 298 298
273 270 267 264 263 262 262 263 263 264 265 267 268 270 272 275 279 281 282 282 282 282 283 284 286 287 288 289 289 290 291 291 292 292 293 293 294 294 294 294 295 295 296 296 297 297 297 297 297 297 297 297 297 297 297 297 297 298 298 298 298 298 298
277 274 271 269 266 264 264 264 265 266 267 268 270 272 274 277 280 281 281 282 283 284 285 286 287 288 289 290 291 291 291 292 292 293 293 294 294 294 294 295 295 296 297 297 297 297 297 297 298 298 298 298 299 299 299 299 299 298 298 298 298 298 298
278 275 273 270 268 267 266 266 267 268 269 271 273 276 278 279 280 281 283 284 284 285 286 287 288 290 290 291 291 292 292 293 293 293 294 294 294 294 294 295 296 296 297 297 297 298 298 299 299 299 299 299 300 300 300 299 299 299 299 298 298 298 298
278 276 274 272 271 270 270 271 272 273 275 277 278 280 281 282 282 283 284 285 286 287 287 289 290 290 291 291 292 292 293 294 294 294 294 294 294 295 295 296 296 297 297 297 298 299 299 299 300 300 300 300 300 300 299 299 299 299 299 298 298 298 298
278 277 276 275 275 276 276 277 279 280 281 282 282 282 282 283 283 284 285 286 287 288 289 290 290 291 291 292 293 293 294 294 294 294 294 295 295 295 296 296 297 298 298 298 299 299 299 300 300 300 300 300 300 300 299 299 299 299 299 299 298 298 297
278 278 278 278 279 280 280 281 282 282 282 282 282 283 283 284 284 285 286 287 289 290 290 291 291 292 292 293 293 294 294 294 294 294 295 295 296 296 296 297 297 298 298 298 299 299 300 300 300 300 300 300 299 299 299 299 299 298 298 298 298 298 298
280 280 280 280 280 281 281 281 281 281 282 282 283 283 284 285 286 287 288 289 290 290 291 291 292 292 293 293 293 293 294 294 295 295 296 296 297 297 297 297 298 298 298 299 299 300 300 300 300 300 299 299 299 298 298 298 298 298 298 298 297 297 297
282 281 281 281 281 282 282 282 282 282 283 284 285 286 286 287 288 289 290 290 290 291 291 292 292 293 293 293 293 293 294 294 295 296 296 297 297 297 298 298 299 299 299 299 300 300 300 300 299 299 299 298 298 298 298 297 297 297 297 296 296 296 294
284 284 283 283 283 283 283 284 284 285 285 286 287 287 288 289 289 289 290 290 290 291 291 292 292 293 293 293 293 293 294 295 296 296 297 297 298 298 299 299 299 299 299 299 299 299 299 299 299 298 298 298 297 297 297 296 296 296 295 295 294 292 291
287 287 286 286 286 286 286 286 287 287 288 288 289 289 290 290 290 290 290 290 291 291 292 292 292 292 292 293 293 294 295 296 296 297 297 298 298 299 299 299 299 299 299 299 299 299 299 299 298 298 297 296 296 296 295 295 295 295 293 292 291 289 289
290 289 288 288 288 288 288 288 288 289 289 290 290 290 290 291 291 291 291 292 292 292 293 293 293 293 293 294 295 296 297 297 298 298 298 298 299 299 298 298 298 298 298 298 298 298 299 298 297 296 295 295 295 294 294 294 294 293 291 289 289 289 289
291 290 290 289 289 289 289 289 289 290 290 291 291 291 291 291 292 292 292 292 292 293 293 293 293 294 294 295 296 297 297 297 297 298 298 298 298 298 298 298 298 298 299 299 299 299 298 297 296 295 295 294 294 294 293 292 291 290 288 288 290 290 291
292 292 291 290 290 290 290 290 290 290 290 291 291 291 291 291 291 291 291 291 292 292 292 292 292 293 294 294 295 295 296 296 297 297 297 297 297 298 298 298 299 299 299 299 299 298 297 295 295 294 294 294 293 293 291 290 289 288 289 290 291 292 293
293 292 292 291 290 290 290 290 290 290 290 290 290 290 290 290 290 291 291 291 291 291 291 292 292 293 294 294 295 295 295 296 296 297 297 297 297 297 298 298 299 298 298 298 297 296 295 295 294 293 292 292 292 291 290 289 289 289 290 291 292 293 294
292 292 291 290 290 289 289 289 289 290 290 290 290 290 290 290 290 290 290 291 291 291 291 292 293 293 294 294 295 295 296 296 296 296 297 297 297 298 298 298 297 297 296 296 295 294 294 293 293 292 291 291 291 290 289 290 290 291 292 292 293 294 294
291 290 289 289 288 288 288 289 289 290 290 290 291 291 291 291 291 291 291 291 291 292 292 293 293 294 294 295 295 296 296 296 297 297 297 298 298 298 298 297 297 296 296 295 295 294 293 292 291 291 291 291 291 291 290 291 291 291 292 292 293 294 295
289 288 288 288 288 288 289 289 290 291 291 291 291 291 291 291 291 291 291 292 292 293 293 294 294 295 295 296 296 296 297 297 298 298 298 299 298 298 297 297 297 296 296 295 294 292 292 292 292 292 292 292 292 291 291 291 291 291 292 293 294 295 295
288 288 288 288 289 289 290 290 290 291 291 291 291 291 291 291 291 292 292 292 293 294 294 294 295 295 296 296 297 297 298 298 299 299 299 298 298 298 297 297 296 296 295 294 293 292 292 293 293 293 293 292 292 292 292 291 291 292 293 294 293 293 294
288 288 289 289 290 290 290 290 291 291 292 292 292 292 292 292 293 293 293 294 295 295 295 296 296 297 297 298 298 299 299 299 299 298 298 298 298 297 296 295 295 294 294 294 294 294 294 294 293 293 293 293 293 293 292 292 292 292 292 291 289 290 293
288 289 289 290 290 290 291 291 292 292 293 293 293 293 293 293 294 294 295 295 296 296 296 297 297 298 299 299 300 300 300 299 299 298 298 298 297 295 294 293 293 293 294 295 295 295 294 294 294 294 295 294 294 293 292 291 290 289 286 285 287 290 294